• In Czech Republic
  • List of Countries
  • For 7 days
  • Water Temperature
  • Satellite Maps
  • Weather Map
  • Weather Widgets
  • user-avatar
    Login

    Hourly Weather Trinidad

    Today, 20 May, Sunday

    Time Temperature Precipitation Wind Pressure Humidity
    00:00 +18°C° 0 mm 2 mps 749 mmHg 73%
    01:00 +17°C° 0 mm 2 mps 750 mmHg 76%
    02:00 +17°C° 0 mm 2 mps 750 mmHg 78%
    03:00 +16°C° 0 mm 2 mps 750 mmHg 77%
    04:00 +16°C° 0 mm 2 mps 750 mmHg 76%
    05:00 +16°C° 0 mm 2 mps 750 mmHg 76%
    06:00 +16°C° 0 mm 2 mps 750 mmHg 70%
    07:00 +17°C° 0 mm 2 mps 750 mmHg 65%
    08:00 +17°C° 0 mm 2 mps 750 mmHg 60%
    09:00 +19°C° 0 mm 3 mps 751 mmHg 53%
    10:00 +21°C° 0 mm 3 mps 751 mmHg 46%
    11:00 +24°C° 0 mm 3 mps 751 mmHg 39%
    12:00 +25°C° 0 mm 2 mps 750 mmHg 37%
    13:00 +27°C° 0 mm 2 mps 749 mmHg 35%
    14:00 +28°C° 0 mm 2 mps 748 mmHg 33%
    15:00 +27°C° 0 mm 1 mps 748 mmHg 38%
    16:00 +26°C° 0 mm 1 mps 747 mmHg 42%
    17:00 +26°C° 0 mm 1 mps 746 mmHg 46%
    18:00 +24°C° 0 mm 1 mps 746 mmHg 50%
    19:00 +22°C° 0 mm 1 mps 746 mmHg 53%
    20:00 +20°C° 0 mm 1 mps 746 mmHg 57%
    21:00 +19°C° 0 mm 1 mps 746 mmHg 59%
    22:00 +18°C° 0 mm 1 mps 746 mmHg 61%
    23:00 +18°C° 0 mm 1 mps 746 mmHg 62%

    Tomorrow, 21 May, Monday

    Time Temperature Precipitation Wind Pressure Humidity
    00:00 +16°C° 0 mm 1 mps 746 mmHg 64%
    01:00 +16°C° 0 mm 1 mps 746 mmHg 65%
    02:00 +16°C° 0 mm 1 mps 746 mmHg 67%
    03:00 +14°C° 0 mm 0 mps 746 mmHg 68%
    04:00 +14°C° 0 mm 0 mps 746 mmHg 69%
    05:00 +14°C° 0 mm 0 mps 745 mmHg 71%
    06:00 +14°C° 0 mm 0 mps 746 mmHg 69%
    07:00 +15°C° 0 mm 0 mps 746 mmHg 67%
    08:00 +16°C° 0 mm 0 mps 747 mmHg 65%
    09:00 +20°C° 0 mm 0 mps 747 mmHg 56%
    10:00 +23°C° 0 mm 0 mps 747 mmHg 47%
    11:00 +26°C° 0 mm 0 mps 747 mmHg 38%
    12:00 +29°C° 0 mm 1 mps 747 mmHg 36%
    13:00 +30°C° 0 mm 1 mps 746 mmHg 35%
    14:00 +31°C° 0 mm 1 mps 745 mmHg 33%
    15:00 +30°C° 0 mm 1 mps 745 mmHg 39%
    16:00 +29°C° 0 mm 1 mps 744 mmHg 44%
    17:00 +28°C° 0 mm 1 mps 744 mmHg 50%
    18:00 +26°C° 0 mm 1 mps 744 mmHg 55%
    19:00 +22°C° 0 mm 0 mps 744 mmHg 60%
    20:00 +20°C° 0 mm 0 mps 745 mmHg 65%
    21:00 +20°C° 0 mm 0 mps 745 mmHg 66%
    22:00 +19°C° 0 mm 0 mps 746 mmHg 67%
    23:00 +19°C° 0 mm 0 mps 747 mmHg 68%

    Day after tomorrow, 22 May, Tuesday

    Time Temperature Precipitation Wind Pressure Humidity
    00:00 +21°C° 0 mm 1 mps 747 mmHg 69%
    01:00 +20°C° 0 mm 1 mps 747 mmHg 70%
    02:00 +20°C° 0 mm 1 mps 747 mmHg 71%
    03:00 +19°C° 0 mm 1 mps 747 mmHg 71%
    04:00 +19°C° 0 mm 1 mps 746 mmHg 71%
    05:00 +19°C° 0 mm 1 mps 746 mmHg 71%
    06:00 +18°C° 0 mm 2 mps 747 mmHg 69%
    07:00 +19°C° 0 mm 2 mps 747 mmHg 67%
    08:00 +19°C° 0 mm 2 mps 748 mmHg 65%
    09:00 +23°C° 0 mm 2 mps 748 mmHg 58%
    10:00 +25°C° 0 mm 2 mps 749 mmHg 51%
    11:00 +28°C° 0 mm 2 mps 749 mmHg 45%
    12:00 +29°C° 0 mm 2 mps 748 mmHg 43%
    13:00 +31°C° 0 mm 1 mps 747 mmHg 41%
    14:00 +32°C° 0 mm 1 mps 746 mmHg 39%
    15:00 +31°C° 0 mm 1 mps 746 mmHg 43%
    16:00 +30°C° 0 mm 1 mps 745 mmHg 47%
    17:00 +30°C° 0 mm 1 mps 745 mmHg 52%
    18:00 +28°C° 0 mm 1 mps 745 mmHg 56%
    19:00 +26°C° 0 mm 1 mps 745 mmHg 60%
    20:00 +24°C° 0 mm 1 mps 746 mmHg 64%
    21:00 +23°C° 0 mm 1 mps 746 mmHg 65%
    22:00 +23°C° 0 mm 1 mps 747 mmHg 66%
    23:00 +22°C° 0 mm 1 mps 748 mmHg 68%

    23 May, Wednesday

    Time Temperature Precipitation Wind Pressure Humidity
    00:00 +21°C° 0 mm 2 mps 748 mmHg 68%
    01:00 +21°C° 0 mm 2 mps 748 mmHg 68%
    02:00 +20°C° 0 mm 2 mps 748 mmHg 68%
    03:00 +20°C° 0 mm 2 mps 748 mmHg 67%
    04:00 +20°C° 0 mm 2 mps 748 mmHg 66%
    05:00 +20°C° 0 mm 2 mps 748 mmHg 65%
    06:00 +20°C° 0 mm 2 mps 749 mmHg 63%
    07:00 +21°C° 0 mm 2 mps 749 mmHg 60%
    08:00 +21°C° 0 mm 3 mps 750 mmHg 58%
    09:00 +24°C° 0 mm 3 mps 750 mmHg 52%
    10:00 +26°C° 0 mm 3 mps 750 mmHg 46%
    11:00 +28°C° 0 mm 3 mps 751 mmHg 40%
    12:00 +29°C° 0 mm 2 mps 750 mmHg 38%
    13:00 +30°C° 0 mm 2 mps 749 mmHg 37%
    14:00 +31°C° 0 mm 2 mps 748 mmHg 35%
    15:00 +30°C° 0 mm 2 mps 747 mmHg 39%
    16:00 +30°C° 0 mm 1 mps 747 mmHg 43%
    17:00 +29°C° 0 mm 1 mps 746 mmHg 46%
    18:00 +27°C° 0 mm 1 mps 746 mmHg 50%
    19:00 +25°C° 0 mm 1 mps 747 mmHg 54%
    20:00 +23°C° 0 mm 1 mps 747 mmHg 58%
    21:00 +23°C° 0 mm 1 mps 748 mmHg 59%
    22:00 +22°C° 0 mm 1 mps 748 mmHg 61%
    23:00 +21°C° 0 mm 1 mps 749 mmHg 62%

    24 May, Thursday

    Time Temperature Precipitation Wind Pressure Humidity
    00:00 +20°C° 0 mm 2 mps 749 mmHg 63%
    01:00 +20°C° 0 mm 2 mps 748 mmHg 64%
    02:00 +19°C° 0 mm 2 mps 748 mmHg 65%
    03:00 +19°C° 0 mm 2 mps 748 mmHg 66%
    04:00 +19°C° 0 mm 2 mps 749 mmHg 68%
    05:00 +18°C° 0 mm 2 mps 749 mmHg 69%
    06:00 +19°C° 0 mm 2 mps 749 mmHg 68%
    07:00 +19°C° 0 mm 2 mps 750 mmHg 66%
    08:00 +20°C° 0 mm 2 mps 751 mmHg 65%
    09:00 +23°C° 0 mm 2 mps 751 mmHg 57%
    10:00 +26°C° 0 mm 2 mps 751 mmHg 50%
    11:00 +28°C° 0 mm 2 mps 751 mmHg 43%
    12:00 +29°C° 0 mm 2 mps 750 mmHg 40%
    13:00 +30°C° 0 mm 2 mps 749 mmHg 37%
    14:00 +32°C° 0 mm 2 mps 748 mmHg 35%
    15:00 +31°C° 0 mm 1 mps 747 mmHg 38%
    16:00 +30°C° 0 mm 1 mps 747 mmHg 42%
    17:00 +30°C° 0 mm 1 mps 746 mmHg 46%
    18:00 +28°C° 0 mm 1 mps 747 mmHg 50%
    19:00 +26°C° 0 mm 1 mps 747 mmHg 53%
    20:00 +24°C° 0 mm 1 mps 747 mmHg 57%
    21:00 +23°C° 0 mm 1 mps 748 mmHg 59%
    22:00 +23°C° 0 mm 1 mps 748 mmHg 61%
    23:00 +22°C° 0 mm 1 mps 748 mmHg 62%

    25 May, Friday

    Time Temperature Precipitation Wind Pressure Humidity
    00:00 +22°C° 0 mm 1 mps 748 mmHg 64%
    01:00 +21°C° 0 mm 1 mps 748 mmHg 65%
    02:00 +20°C° 0 mm 2 mps 747 mmHg 66%
    03:00 +19°C° 0 mm 2 mps 747 mmHg 68%
    04:00 +20°C° 0 mm 1 mps 747 mmHg 70%
    05:00 +20°C° 0 mm 1 mps 747 mmHg 71%
    06:00 +20°C° 0 mm 1 mps 747 mmHg 70%
    07:00 +20°C° 0 mm 2 mps 748 mmHg 68%
    08:00 +21°C° 0 mm 2 mps 748 mmHg 67%
    09:00 +24°C° 0 mm 1 mps 748 mmHg 59%
    10:00 +27°C° 0 mm 1 mps 748 mmHg 51%
    11:00 +30°C° 0 mm 1 mps 748 mmHg 43%
    12:00 +31°C° 0 mm 1 mps 747 mmHg 41%
    13:00 +33°C° 0 mm 1 mps 746 mmHg 38%
    14:00 +32°C° 0 mm 0 mps 745 mmHg 36%
    15:00 +31°C° 0 mm 0 mps 745 mmHg 40%
    16:00 +30°C° 0 mm 0 mps 744 mmHg 44%
    17:00 +29°C° 0 mm 0 mps 744 mmHg 48%
    18:00 +27°C° 0 mm 0 mps 744 mmHg 53%
    19:00 +25°C° 0 mm 0 mps 744 mmHg 57%
    20:00 +23°C° 0 mm 0 mps 745 mmHg 62%
    21:00 +23°C° 0 mm 0 mps 745 mmHg 63%
    22:00 +22°C° 0 mm 0 mps 745 mmHg 65%
    23:00 +22°C° 0 mm 0 mps 746 mmHg 66%
    Show more